Hourly Data Report for October 06, 2017

All times are specified in Local Standard Time (LST). Add 1 hour to adjust for Daylight Saving Time where and when it is observed.

SACHS HARBOUR CLIMATE
NORTHWEST TERRITORIES

71°59'33.000" N
125°15'15.000" W
87.50 m
2503648
71467
WSY

Download Data

Hourly Data (October 2017)
Hourly Data Report for October 6, 2017
Temp Definition
°C
Dew Point Temp Definition
°C
Rel Hum Definition
%
Wind Dir Definition
10's deg

Wind Spd Definition
km/h
Visibility Definition
km
Stn Press Definition
kPa
Hmdx Definition


Wind Chill Definition


Weather Definition


TIME
00:00 -2.4 -3.9 89 12 34   98.96   -10 LegendNANA
01:00 -2.9 -4.1 91 12 31   98.97   -10 LegendNANA
02:00 -4.3 -5.5 91 12 27   98.96   -12 LegendNANA
03:00 -3.6 -5.4 87 10 35   98.91   -12 LegendNANA
04:00 -3.5 -5.4 87 11 37   98.90   -12 LegendNANA
05:00 -3.6 -5.1 89 11 26   98.89   -11 LegendNANA
06:00 -3.7 -5.4 88 11 18   98.89   -10 LegendNANA
07:00 -4.4 -5.9 90 12 23   98.88   -11 LegendNANA
08:00 -3.8 -5.2 90 12 23   98.88   -11 LegendNANA
09:00 -3.6 -5.6 86 11 28   98.90   -11 LegendNANA
10:00 -3.5 -5.7 85 11 30   98.91   -11 LegendNANA
11:00 -3.5 -5.3 87 12 24   98.92   -10 LegendNANA
12:00 -3.3 -5.1 88 11 28   98.95   -11 LegendNANA
13:00 -3.1 -5.3 85 12 26   99.00   -10 LegendNANA
14:00 -3.1 -5.1 86 12 18   99.07   -9 LegendNANA
15:00 -3.2 -5.3 85 11 21   99.09   -9 LegendNANA
16:00 -3.9 -6.1 85 11 22   99.11   -10 LegendNANA
17:00 -4.6 -6.8 84 10 22   99.14   -11 LegendNANA
18:00 -4.7 -6.3 88 10 25   99.18   -12 LegendNANA
19:00 -4.7 -6.3 88 10 25   99.23   -12 LegendNANA
20:00 -5.6 -7.1 90 10 23   99.28   -13 LegendNANA
21:00 -5.2 -6.6 90 10 21   99.31   -12 LegendNANA
22:00 -4.7 -6.1 90 10 20   99.35   -11 LegendNANA
23:00 -4.1 -5.6 90 9 17   99.43   -10 LegendNANA

Notes on Data Quality.

Legend

  • E = Estimated
  • M = Missing
  • NA = Not Available
  • ‡ = Partner data that is not subject to review by the National Climate Archives
Date modified: